Time,TemperatureF,DewpointF,PressureIn,WindDirection,WindDirectionDegrees,WindSpeedMPH,WindSpeedGustMPH,Humidity,HourlyPrecipIn,Conditions,Clouds,dailyrainin,SoftwareType,DateUTC
2013-01-21 00:04:00,28.8,21.2,28.82,NE,45,9.4,9.4,73,0.00,CLR,,0.00,WeatherDisplay:10.37,2013-01-21 06:04:00,
2013-01-21 00:10:00,28.4,20.8,28.82,NNE,12,8.0,10.0,73,0.00,CLR,,0.00,WeatherDisplay:10.37,2013-01-21 06:10:00,
2013-01-21 00:15:00,28.2,20.7,28.82,North,11,7.0,12.0,73,0.00,CLR,,0.00,WeatherDisplay:10.37,2013-01-21 06:15:00,
2013-01-21 00:20:00,28.2,20.7,28.83,North,360,6.3,6.3,73,0.00,CLR,,0.00,WeatherDisplay:10.37,2013-01-21 06:20:00,
2013-01-21 00:25:00,28.0,20.5,28.83,NNW,338,5.8,5.8,73,0.00,CLR,,0.00,WeatherDisplay:10.37,2013-01-21 06:25:00,
2013-01-21 00:30:00,27.9,20.4,28.82,NNE,22,6.9,6.9,73,0.00,CLR,,0.00,WeatherDisplay:10.37,2013-01-21 06:30:00,
2013-01-21 00:35:00,27.7,20.5,28.82,NE,45,5.8,5.8,74,0.00,CLR,,0.00,WeatherDisplay:10.37,2013-01-21 06:35:00,
2013-01-21 00:40:00,27.7,20.5,28.82,NNE,22,5.8,5.9,74,0.00,CLR,,0.00,WeatherDisplay:10.37,2013-01-21 06:40:00,
2013-01-21 00:45:00,27.3,20.1,28.82,NNE,22,5.8,5.8,74,0.00,CLR,,0.00,WeatherDisplay:10.37,2013-01-21 06:45:00,
2013-01-21 00:50:00,27.1,20.2,28.82,NNE,22,5.8,5.8,75,0.00,CLR,,0.00,WeatherDisplay:10.37,2013-01-21 06:50:00,
2013-01-21 00:55:00,27.1,20.2,28.82,North,360,5.8,5.8,75,0.00,CLR,,0.00,WeatherDisplay:10.37,2013-01-21 06:55:00,
2013-01-21 01:00:00,27.1,19.9,28.82,NNE,22,4.6,4.6,74,0.00,CLR,,0.00,WeatherDisplay:10.37,2013-01-21 07:00:00,
2013-01-21 01:05:00,27.0,19.8,28.82,NNW,338,5.8,5.8,74,0.00,CLR,,0.00,WeatherDisplay:10.37,2013-01-21 07:05:00,
2013-01-21 01:10:00,26.8,19.9,28.82,NNE,22,4.7,4.7,75,0.00,CLR,,0.00,WeatherDisplay:10.37,2013-01-21 07:10:00,
2013-01-21 01:15:00,26.8,19.9,28.83,NE,45,5.8,5.8,75,0.00,CLR,,0.00,WeatherDisplay:10.37,2013-01-21 07:15:00,
2013-01-21 01:20:00,26.6,19.7,28.83,NNE,22,4.6,4.6,75,0.00,CLR,,0.00,WeatherDisplay:10.37,2013-01-21 07:20:00,
2013-01-21 01:25:00,26.4,19.9,28.83,NNW,338,5.8,5.8,76,0.00,CLR,,0.00,WeatherDisplay:10.37,2013-01-21 07:25:00,
2013-01-21 01:30:00,26.6,19.7,28.83,NNE,22,6.9,6.9,75,0.00,CLR,,0.00,WeatherDisplay:10.37,2013-01-21 07:30:00,
2013-01-21 01:35:00,26.4,19.5,28.83,North,360,8.1,8.1,75,0.00,CLR,,0.00,WeatherDisplay:10.37,2013-01-21 07:35:00,
2013-01-21 01:40:00,26.4,19.9,28.84,NNE,22,5.8,5.8,76,0.00,CLR,,0.00,WeatherDisplay:10.37,2013-01-21 07:40:00,
2013-01-21 01:45:00,26.2,19.4,28.84,NNE,22,5.8,5.8,75,0.00,CLR,,0.00,WeatherDisplay:10.37,2013-01-21 07:45:00,
2013-01-21 01:50:00,25.9,19.4,28.84,NNW,338,4.2,4.2,76,0.00,CLR,,0.00,WeatherDisplay:10.37,2013-01-21 07:50:00,
2013-01-21 01:55:00,26.1,19.6,28.84,North,360,5.8,5.8,76,0.00,CLR,,0.00,WeatherDisplay:10.37,2013-01-21 07:55:00,
2013-01-21 02:00:00,26.1,19.6,28.84,NNE,22,5.8,5.8,76,0.00,CLR,,0.00,WeatherDisplay:10.37,2013-01-21 08:00:00,
2013-01-21 02:05:00,26.1,19.6,28.84,NNE,22,6.9,6.9,76,0.00,CLR,,0.00,WeatherDisplay:10.37,2013-01-21 08:05:00,
2013-01-21 02:10:00,26.1,19.6,28.84,North,360,4.6,4.6,76,0.00,CLR,,0.00,WeatherDisplay:10.37,2013-01-21 08:10:00,
2013-01-21 02:15:00,26.1,19.6,28.85,North,360,5.8,5.8,76,0.00,CLR,,0.00,WeatherDisplay:10.37,2013-01-21 08:15:00,
2013-01-21 02:20:00,25.9,19.4,28.85,NNE,22,4.7,4.7,76,0.00,CLR,,0.00,WeatherDisplay:10.37,2013-01-21 08:20:00,
2013-01-21 02:25:00,25.7,19.2,28.85,North,360,4.6,4.6,76,0.00,CLR,,0.00,WeatherDisplay:10.37,2013-01-21 08:25:00,
2013-01-21 02:30:00,25.5,19.0,28.86,NNE,22,4.6,4.6,76,0.00,CLR,,0.00,WeatherDisplay:10.37,2013-01-21 08:30:00,
2013-01-21 02:35:00,25.5,19.0,28.86,North,360,4.2,4.2,76,0.00,CLR,,0.00,WeatherDisplay:10.37,2013-01-21 08:35:00,
2013-01-21 02:40:00,25.5,19.0,28.87,NNE,22,4.6,4.6,76,0.00,CLR,,0.00,WeatherDisplay:10.37,2013-01-21 08:40:00,
2013-01-21 02:45:00,25.3,18.5,28.87,NNE,22,4.6,4.6,75,0.00,CLR,,0.00,WeatherDisplay:10.37,2013-01-21 08:45:00,
2013-01-21 02:50:00,25.0,18.5,28.87,North,360,3.7,3.7,76,0.00,CLR,,0.00,WeatherDisplay:10.37,2013-01-21 08:50:00,
2013-01-21 02:55:00,25.0,18.2,28.87,NNW,338,3.5,3.5,75,0.00,CLR,,0.00,WeatherDisplay:10.37,2013-01-21 08:55:00,
2013-01-21 03:00:00,25.0,18.2,28.87,NNW,338,3.2,3.2,75,0.00,CLR,,0.00,WeatherDisplay:10.37,2013-01-21 09:00:00,
2013-01-21 03:05:00,24.8,18.0,28.86,NNE,22,3.5,3.5,75,0.00,CLR,,0.00,WeatherDisplay:10.37,2013-01-21 09:05:00,
2013-01-21 03:10:00,24.4,17.6,28.86,NNW,338,2.7,2.7,75,0.00,CLR,,0.00,WeatherDisplay:10.37,2013-01-21 09:10:00,
2013-01-21 03:15:00,24.6,17.5,28.86,NNE,22,3.5,3.5,74,0.00,CLR,,0.00,WeatherDisplay:10.37,2013-01-21 09:15:00,
2013-01-21 03:20:00,24.8,17.7,28.86,NNE,22,3.5,3.5,74,0.00,CLR,,0.00,WeatherDisplay:10.37,2013-01-21 09:20:00,
2013-01-21 03:25:00,24.4,17.9,28.86,NNE,22,3.5,3.5,76,0.00,CLR,,0.00,WeatherDisplay:10.37,2013-01-21 09:25:00,
2013-01-21 03:30:00,24.3,17.8,28.87,NNE,22,4.6,4.6,76,0.00,CLR,,0.00,WeatherDisplay:10.37,2013-01-21 09:30:00,
2013-01-21 03:35:00,24.4,17.3,28.87,North,360,5.8,5.8,74,0.00,CLR,,0.00,WeatherDisplay:10.37,2013-01-21 09:35:00,
2013-01-21 03:40:00,24.4,17.3,28.87,North,360,4.7,4.7,74,0.00,CLR,,0.00,WeatherDisplay:10.37,2013-01-21 09:40:00,
2013-01-21 03:45:00,24.3,17.2,28.87,North,360,4.6,4.6,74,0.00,CLR,,0.00,WeatherDisplay:10.37,2013-01-21 09:45:00,
2013-01-21 03:50:00,23.9,17.1,28.87,North,360,5.8,5.8,75,0.00,CLR,,0.00,WeatherDisplay:10.37,2013-01-21 09:50:00,
2013-01-21 03:55:00,24.1,17.3,28.88,North,360,5.8,5.8,75,0.00,CLR,,0.00,WeatherDisplay:10.37,2013-01-21 09:55:00,
2013-01-21 04:00:00,23.9,17.1,28.88,NNW,338,4.6,4.6,75,0.00,CLR,,0.00,WeatherDisplay:10.37,2013-01-21 10:00:00,
2013-01-21 04:05:00,23.9,17.4,28.88,NNE,22,5.8,5.8,76,0.00,CLR,,0.00,WeatherDisplay:10.37,2013-01-21 10:05:00,
2013-01-21 04:10:00,23.5,17.3,28.88,NNE,22,4.6,4.6,77,0.00,CLR,,0.00,WeatherDisplay:10.37,2013-01-21 10:10:00,
2013-01-21 04:15:00,23.5,17.3,28.88,NNE,22,4.6,4.6,77,0.00,CLR,,0.00,WeatherDisplay:10.37,2013-01-21 10:15:00,
2013-01-21 04:20:00,23.5,17.3,28.88,NNE,22,4.6,4.6,77,0.00,CLR,,0.00,WeatherDisplay:10.37,2013-01-21 10:20:00,
2013-01-21 04:25:00,23.4,17.3,28.88,North,360,5.8,5.8,77,0.00,CLR,,0.00,WeatherDisplay:10.37,2013-01-21 10:25:00,
2013-01-21 04:30:00,23.4,17.3,28.88,NNE,22,6.9,6.9,77,0.00,CLR,,0.00,WeatherDisplay:10.37,2013-01-21 10:30:00,
2013-01-21 04:35:00,23.2,17.1,28.88,NNW,338,4.6,4.6,77,0.00,CLR,,0.00,WeatherDisplay:10.37,2013-01-21 10:35:00,
2013-01-21 04:40:00,23.2,16.8,28.88,NNW,338,4.6,4.6,76,0.00,CLR,,0.00,WeatherDisplay:10.37,2013-01-21 10:40:00,
2013-01-21 04:45:00,23.2,16.8,28.88,North,360,3.5,3.5,76,0.00,CLR,,0.00,WeatherDisplay:10.37,2013-01-21 10:45:00,
2013-01-21 04:50:00,23.2,16.4,28.88,NNW,338,4.6,4.6,75,0.00,CLR,,0.00,WeatherDisplay:10.37,2013-01-21 10:50:00,
2013-01-21 04:55:00,23.0,16.3,28.88,North,360,3.5,3.5,75,0.00,CLR,,0.00,WeatherDisplay:10.37,2013-01-21 10:55:00,
2013-01-21 05:00:00,23.0,15.9,28.88,North,360,4.6,4.6,74,0.00,CLR,,0.00,WeatherDisplay:10.37,2013-01-21 11:00:00,
2013-01-21 05:05:00,23.0,15.9,28.88,NW,315,4.7,4.7,74,0.00,CLR,,0.00,WeatherDisplay:10.37,2013-01-21 11:05:00,
2013-01-21 05:10:00,22.8,15.4,28.88,NNW,338,3.5,3.5,73,0.00,CLR,,0.00,WeatherDisplay:10.37,2013-01-21 11:10:00,
2013-01-21 05:15:00,22.8,15.4,28.88,North,360,3.5,3.5,73,0.00,CLR,,0.00,WeatherDisplay:10.37,2013-01-21 11:15:00,
2013-01-21 05:20:00,22.6,15.2,28.88,NNE,22,3.5,3.5,73,0.00,CLR,,0.00,WeatherDisplay:10.37,2013-01-21 11:20:00,
2013-01-21 05:25:00,22.6,15.2,28.88,North,360,4.6,4.6,73,0.00,CLR,,0.00,WeatherDisplay:10.37,2013-01-21 11:25:00,
2013-01-21 05:30:00,22.5,15.1,28.88,NNW,338,4.6,4.6,73,0.00,CLR,,0.00,WeatherDisplay:10.37,2013-01-21 11:30:00,
2013-01-21 05:35:00,22.3,15.0,28.88,North,360,3.2,3.2,73,0.00,CLR,,0.00,WeatherDisplay:10.37,2013-01-21 11:35:00,
2013-01-21 05:40:00,22.3,15.0,28.88,North,360,3.5,3.5,73,0.00,CLR,,0.00,WeatherDisplay:10.37,2013-01-21 11:40:00,
2013-01-21 05:45:00,22.1,14.8,28.88,North,360,2.3,2.3,73,0.00,CLR,,0.00,WeatherDisplay:10.37,2013-01-21 11:45:00,
2013-01-21 05:50:00,22.1,14.8,28.88,NNE,22,4.6,4.6,73,0.00,CLR,,0.00,WeatherDisplay:10.37,2013-01-21 11:50:00,
2013-01-21 05:55:00,22.3,14.6,28.89,NNE,22,5.8,5.8,72,0.00,CLR,,0.00,WeatherDisplay:10.37,2013-01-21 11:55:00,
2013-01-21 06:00:00,22.3,15.0,28.89,NNE,22,4.6,4.6,73,0.00,CLR,,0.00,WeatherDisplay:10.37,2013-01-21 12:00:00,
2013-01-21 06:05:00,22.1,14.8,28.88,North,360,3.5,3.5,73,0.00,CLR,,0.00,WeatherDisplay:10.37,2013-01-21 12:05:00,
2013-01-21 06:10:00,21.9,14.6,28.88,North,360,3.5,3.5,73,0.00,CLR,,0.00,WeatherDisplay:10.37,2013-01-21 12:10:00,
2013-01-21 06:15:00,21.7,14.7,28.87,NNW,338,4.6,4.6,74,0.00,CLR,,0.00,WeatherDisplay:10.37,2013-01-21 12:15:00,
2013-01-21 06:20:00,21.7,14.7,28.87,West,270,3.5,3.5,74,0.00,CLR,,0.00,WeatherDisplay:10.37,2013-01-21 12:20:00,
2013-01-21 06:25:00,21.7,14.7,28.87,North,360,3.7,3.7,74,0.00,CLR,,0.00,WeatherDisplay:10.37,2013-01-21 12:25:00,
2013-01-21 06:30:00,21.6,14.9,28.88,NNE,22,4.6,4.6,75,0.00,CLR,,0.00,WeatherDisplay:10.37,2013-01-21 12:30:00,
2013-01-21 06:35:00,21.6,14.9,28.88,NNE,22,4.6,4.6,75,0.00,CLR,,0.00,WeatherDisplay:10.37,2013-01-21 12:35:00,
2013-01-21 06:40:00,21.4,14.7,28.89,North,360,3.5,3.5,75,0.00,CLR,,0.00,WeatherDisplay:10.37,2013-01-21 12:40:00,
2013-01-21 06:45:00,21.2,14.8,28.89,WNW,292,2.7,2.8,76,0.00,CLR,,0.00,WeatherDisplay:10.37,2013-01-21 12:45:00,
2013-01-21 06:50:00,21.0,14.6,28.89,NNE,22,4.6,4.6,76,0.00,CLR,,0.00,WeatherDisplay:10.37,2013-01-21 12:50:00,
2013-01-21 06:55:00,20.8,14.7,28.89,North,360,4.6,4.6,77,0.00,CLR,,0.00,WeatherDisplay:10.37,2013-01-21 12:55:00,
2013-01-21 07:00:00,21.0,14.6,28.89,NNE,22,4.7,4.7,76,0.00,CLR,,0.00,WeatherDisplay:10.37,2013-01-21 13:00:00,
2013-01-21 07:05:00,21.0,14.6,28.89,NNE,22,4.6,4.6,76,0.00,CLR,,0.00,WeatherDisplay:10.37,2013-01-21 13:05:00,
2013-01-21 07:10:00,21.0,14.6,28.89,North,360,3.7,4.1,76,0.00,CLR,,0.00,WeatherDisplay:10.37,2013-01-21 13:10:00,
2013-01-21 07:15:00,21.0,14.6,28.89,NNE,22,5.8,5.8,76,0.00,CLR,,0.00,WeatherDisplay:10.37,2013-01-21 13:15:00,
2013-01-21 07:21:00,21.0,14.6,28.89,North,360,4.6,4.6,76,0.00,CLR,,0.00,WeatherDisplay:10.37,2013-01-21 13:21:00,
2013-01-21 07:25:00,21.0,14.6,28.89,North,360,3.7,3.7,76,0.00,CLR,,0.00,WeatherDisplay:10.37,2013-01-21 13:25:00,
2013-01-21 07:31:00,21.0,14.6,28.89,WNW,292,5.3,5.3,76,0.00,CLR,,0.00,WeatherDisplay:10.37,2013-01-21 13:31:00,
2013-01-21 07:36:00,21.0,14.6,28.89,NW,315,3.5,3.5,76,0.00,CLR,,0.00,WeatherDisplay:10.37,2013-01-21 13:36:00,
2013-01-21 07:41:00,21.0,14.6,28.89,North,360,3.5,3.5,76,0.00,CLR,,0.00,WeatherDisplay:10.37,2013-01-21 13:41:00,
2013-01-21 07:46:00,20.8,14.4,28.89,NNW,338,2.3,2.3,76,0.00,CLR,,0.00,WeatherDisplay:10.37,2013-01-21 13:46:00,
2013-01-21 07:51:00,20.8,14.4,28.89,North,360,3.5,3.5,76,0.00,CLR,,0.00,WeatherDisplay:10.37,2013-01-21 13:51:00,
2013-01-21 07:56:00,20.8,14.4,28.90,North,360,3.5,3.5,76,0.00,CLR,,0.00,WeatherDisplay:10.37,2013-01-21 13:56:00,
2013-01-21 08:01:00,21.2,14.8,28.90,NNW,338,4.7,4.7,76,0.00,CLR,,0.00,WeatherDisplay:10.37,2013-01-21 14:01:00,
2013-01-21 08:06:00,21.4,14.7,28.91,NNW,338,3.7,3.7,75,0.00,CLR,,0.00,WeatherDisplay:10.37,2013-01-21 14:06:00,
2013-01-21 08:11:00,21.4,14.7,28.91,North,360,4.7,4.7,75,0.00,CLR,,0.00,WeatherDisplay:10.37,2013-01-21 14:11:00,
2013-01-21 08:16:00,21.6,14.6,28.90,NNE,22,5.8,5.8,74,0.00,CLR,,0.00,WeatherDisplay:10.37,2013-01-21 14:16:00,
2013-01-21 08:21:00,21.7,14.7,28.90,North,360,3.5,3.5,74,0.00,CLR,,0.00,WeatherDisplay:10.37,2013-01-21 14:21:00,
2013-01-21 08:26:00,21.7,14.7,28.90,NNE,22,4.6,4.6,74,0.00,CLR,,0.00,WeatherDisplay:10.37,2013-01-21 14:26:00,
2013-01-21 08:31:00,21.9,14.3,28.90,NNE,22,5.8,5.8,72,0.00,CLR,,0.00,WeatherDisplay:10.37,2013-01-21 14:31:00,
2013-01-21 08:37:00,22.3,15.0,28.90,NNE,22,4.7,4.7,73,0.00,CLR,,0.00,WeatherDisplay:10.37,2013-01-21 14:37:00,
2013-01-21 08:42:00,22.5,14.8,28.91,NNW,338,6.9,6.9,72,0.00,CLR,,0.00,WeatherDisplay:10.37,2013-01-21 14:42:00,
2013-01-21 08:47:00,22.5,14.5,28.91,NNE,22,4.6,4.6,71,0.00,CLR,,0.00,WeatherDisplay:10.37,2013-01-21 14:47:00,
2013-01-21 08:52:00,23.0,15.0,28.91,NNW,338,4.6,4.6,71,0.00,CLR,,0.00,WeatherDisplay:10.37,2013-01-21 14:52:00,
2013-01-21 08:57:00,23.2,14.9,28.91,ENE,68,5.8,5.8,70,0.00,CLR,,0.00,WeatherDisplay:10.37,2013-01-21 14:57:00,
2013-01-21 09:02:00,23.5,15.1,28.91,NNE,22,5.3,5.3,70,0.00,CLR,,0.00,WeatherDisplay:10.37,2013-01-21 15:02:00,
2013-01-21 09:07:00,23.7,14.7,28.92,ENE,68,4.7,4.7,68,0.00,CLR,,0.00,WeatherDisplay:10.37,2013-01-21 15:07:00,
2013-01-21 09:12:00,24.1,15.1,28.92,NNW,338,5.8,5.8,68,0.00,CLR,,0.00,WeatherDisplay:10.37,2013-01-21 15:12:00,
2013-01-21 09:17:00,24.4,15.0,28.92,North,360,6.9,6.9,67,0.00,CLR,,0.00,WeatherDisplay:10.37,2013-01-21 15:17:00,
2013-01-21 09:22:00,25.2,15.8,28.92,NNE,22,7.8,7.8,67,0.00,CLR,,0.00,WeatherDisplay:10.37,2013-01-21 15:22:00,
2013-01-21 09:27:00,25.0,15.2,28.93,North,360,4.6,5.1,66,0.00,CLR,,0.00,WeatherDisplay:10.37,2013-01-21 15:27:00,
2013-01-21 09:32:00,25.2,15.4,28.93,NNW,338,4.7,4.7,66,0.00,CLR,,0.00,WeatherDisplay:10.37,2013-01-21 15:32:00,
2013-01-21 09:37:00,26.2,15.3,28.93,WNW,292,5.8,5.8,63,0.00,CLR,,0.00,WeatherDisplay:10.37,2013-01-21 15:37:00,
2013-01-21 09:42:00,26.8,15.5,28.93,WNW,292,4.6,4.6,62,0.00,CLR,,0.00,WeatherDisplay:10.37,2013-01-21 15:42:00,
2013-01-21 09:47:00,27.1,15.8,28.93,NNE,22,5.8,5.8,62,0.00,CLR,,0.00,WeatherDisplay:10.37,2013-01-21 15:47:00,
2013-01-21 09:52:00,28.4,16.3,28.93,NNW,338,4.6,4.8,60,0.00,CLR,,0.00,WeatherDisplay:10.37,2013-01-21 15:52:00,
2013-01-21 09:57:00,28.4,16.3,28.93,North,360,4.7,4.7,60,0.00,CLR,,0.00,WeatherDisplay:10.37,2013-01-21 15:57:00,
2013-01-21 10:02:00,28.8,15.9,28.93,NNE,22,5.8,5.8,58,0.00,CLR,,0.00,WeatherDisplay:10.37,2013-01-21 16:02:00,
2013-01-21 10:07:00,29.7,16.3,28.93,NNW,338,4.6,4.6,57,0.00,CLR,,0.00,WeatherDisplay:10.37,2013-01-21 16:07:00,
2013-01-21 10:12:00,29.7,15.9,28.93,North,360,5.8,5.8,56,0.00,CLR,,0.00,WeatherDisplay:10.37,2013-01-21 16:12:00,
2013-01-21 10:17:00,29.8,16.0,28.93,North,360,5.8,5.8,56,0.00,CLR,,0.00,WeatherDisplay:10.37,2013-01-21 16:17:00,
2013-01-21 10:22:00,29.5,14.9,28.93,NNW,338,4.7,4.7,54,0.00,CLR,,0.00,WeatherDisplay:10.37,2013-01-21 16:22:00,
2013-01-21 10:27:00,31.1,16.4,28.93,NNE,22,5.8,5.8,54,0.00,CLR,,0.00,WeatherDisplay:10.37,2013-01-21 16:27:00,
2013-01-21 10:32:00,31.1,15.9,28.93,NNW,338,5.8,5.8,53,0.00,CLR,,0.00,WeatherDisplay:10.37,2013-01-21 16:32:00,
2013-01-21 10:37:00,31.6,16.0,28.93,NNE,22,5.8,5.8,52,0.00,CLR,,0.00,WeatherDisplay:10.37,2013-01-21 16:37:00,
2013-01-21 10:42:00,31.5,16.3,28.93,NW,315,6.9,6.9,53,0.00,CLR,,0.00,WeatherDisplay:10.37,2013-01-21 16:42:00,
2013-01-21 10:47:00,32.9,16.7,28.93,North,360,3.5,3.5,51,0.00,CLR,,0.00,WeatherDisplay:10.37,2013-01-21 16:47:00,
2013-01-21 10:52:00,32.4,16.3,28.93,West,270,5.8,5.8,51,0.00,CLR,,0.00,WeatherDisplay:10.37,2013-01-21 16:52:00,
2013-01-21 10:57:00,32.9,16.7,28.93,NNE,22,5.8,5.8,51,0.00,CLR,,0.00,WeatherDisplay:10.37,2013-01-21 16:57:00,
2013-01-21 11:02:00,33.4,17.2,28.93,North,360,5.8,5.8,51,0.00,CLR,,0.00,WeatherDisplay:10.37,2013-01-21 17:02:00,
2013-01-21 11:07:00,32.5,15.9,28.93,NW,315,6.9,6.9,50,0.00,CLR,,0.00,WeatherDisplay:10.37,2013-01-21 17:07:00,
2013-01-21 11:12:00,33.8,16.6,28.93,NNW,338,3.7,3.7,49,0.00,CLR,,0.00,WeatherDisplay:10.37,2013-01-21 17:12:00,
2013-01-21 11:17:00,32.9,15.8,28.93,North,360,9.2,9.2,49,0.00,CLR,,0.00,WeatherDisplay:10.37,2013-01-21 17:17:00,
2013-01-21 11:22:00,32.9,16.3,28.93,North,360,5.8,5.8,50,0.00,CLR,,0.00,WeatherDisplay:10.37,2013-01-21 17:22:00,
2013-01-21 11:27:00,33.3,15.7,28.92,North,360,5.8,5.8,48,0.00,CLR,,0.00,WeatherDisplay:10.37,2013-01-21 17:27:00,
2013-01-21 11:32:00,33.6,16.5,28.92,West,270,4.6,4.6,49,0.00,CLR,,0.00,WeatherDisplay:10.37,2013-01-21 17:32:00,
2013-01-21 11:37:00,33.8,16.2,28.92,NNW,338,5.8,5.9,48,0.00,CLR,,0.00,WeatherDisplay:10.37,2013-01-21 17:37:00,
2013-01-21 11:42:00,34.2,16.0,28.92,NNE,22,5.8,5.8,47,0.00,CLR,,0.00,WeatherDisplay:10.37,2013-01-21 17:42:00,
2013-01-21 11:47:00,34.3,15.1,28.92,NNW,338,6.9,6.9,45,0.00,CLR,,0.00,WeatherDisplay:10.37,2013-01-21 17:47:00,
2013-01-21 11:52:00,34.9,16.2,28.91,NNE,22,5.8,5.8,46,0.00,CLR,,0.00,WeatherDisplay:10.37,2013-01-21 17:52:00,
2013-01-21 11:57:00,34.9,16.2,28.91,North,360,6.9,6.9,46,0.00,CLR,,0.00,WeatherDisplay:10.37,2013-01-21 17:57:00,
2013-01-21 12:02:00,34.9,16.2,28.91,North,360,6.9,6.9,46,0.00,CLR,,0.00,WeatherDisplay:10.37,2013-01-21 18:02:00,
2013-01-21 12:07:00,36.0,16.7,28.91,NNE,22,5.8,5.8,45,0.00,CLR,,0.00,WeatherDisplay:10.37,2013-01-21 18:07:00,
2013-01-21 12:12:00,36.1,16.8,28.91,NE,45,6.9,6.9,45,0.00,CLR,,0.00,WeatherDisplay:10.37,2013-01-21 18:12:00,
2013-01-21 12:17:00,36.0,16.2,28.90,North,360,6.9,7.1,44,0.00,CLR,,0.00,WeatherDisplay:10.37,2013-01-21 18:17:00,
2013-01-21 12:23:00,36.7,16.8,28.90,North,360,6.3,6.3,44,0.00,CLR,,0.00,WeatherDisplay:10.37,2013-01-21 18:23:00,
2013-01-21 12:28:00,36.0,16.2,28.89,NNW,338,8.1,8.1,44,0.00,CLR,,0.00,WeatherDisplay:10.37,2013-01-21 18:28:00,
2013-01-21 12:33:00,36.3,16.4,28.89,NNE,22,8.1,8.1,44,0.00,CLR,,0.00,WeatherDisplay:10.37,2013-01-21 18:33:00,
2013-01-21 12:38:00,37.2,17.3,28.89,NNE,22,5.8,5.8,44,0.00,CLR,,0.00,WeatherDisplay:10.37,2013-01-21 18:38:00,
2013-01-21 12:43:00,37.4,16.9,28.88,NNW,338,6.9,6.9,43,0.00,CLR,,0.00,WeatherDisplay:10.37,2013-01-21 18:43:00,
2013-01-21 12:48:00,36.3,16.4,28.88,North,360,9.2,9.2,44,0.00,CLR,,0.00,WeatherDisplay:10.37,2013-01-21 18:48:00,
2013-01-21 12:53:00,37.8,17.3,28.88,NNE,22,3.5,3.5,43,0.00,CLR,,0.00,WeatherDisplay:10.37,2013-01-21 18:53:00,
2013-01-21 12:58:00,37.6,16.5,28.88,North,360,5.8,5.8,42,0.00,CLR,,0.00,WeatherDisplay:10.37,2013-01-21 18:58:00,
2013-01-21 13:03:00,36.7,16.3,28.87,North,360,6.9,6.9,43,0.00,CLR,,0.00,WeatherDisplay:10.37,2013-01-21 19:03:00,
2013-01-21 13:08:00,37.0,16.5,28.87,NNE,22,8.1,8.1,43,0.00,CLR,,0.00,WeatherDisplay:10.37,2013-01-21 19:08:00,
2013-01-21 13:13:00,37.9,17.4,28.87,WNW,292,5.8,5.8,43,0.00,CLR,,0.00,WeatherDisplay:10.37,2013-01-21 19:13:00,
2013-01-21 13:18:00,38.1,17.5,28.87,North,360,6.9,6.9,43,0.00,CLR,,0.00,WeatherDisplay:10.37,2013-01-21 19:18:00,
2013-01-21 13:23:00,37.0,16.0,28.87,NNW,338,6.3,6.3,42,0.00,CLR,,0.00,WeatherDisplay:10.37,2013-01-21 19:23:00,
2013-01-21 13:28:00,37.0,16.0,28.87,NNW,338,6.3,6.3,42,0.00,CLR,,0.00,WeatherDisplay:10.37,2013-01-21 19:28:00,
2013-01-21 13:33:00,37.4,16.9,28.87,NNE,22,4.6,4.6,43,0.00,CLR,,0.00,WeatherDisplay:10.37,2013-01-21 19:33:00,
2013-01-21 13:38:00,38.1,17.5,28.87,North,360,9.2,9.2,43,0.00,CLR,,0.00,WeatherDisplay:10.37,2013-01-21 19:38:00,
2013-01-21 13:43:00,38.3,17.7,28.86,NNE,22,6.9,6.9,43,0.00,CLR,,0.00,WeatherDisplay:10.37,2013-01-21 19:43:00,
2013-01-21 13:48:00,38.3,17.7,28.86,WNW,292,5.8,5.8,43,0.00,CLR,,0.00,WeatherDisplay:10.37,2013-01-21 19:48:00,
2013-01-21 13:53:00,37.2,17.3,28.86,NNE,22,6.8,6.8,44,0.00,CLR,,0.00,WeatherDisplay:10.37,2013-01-21 19:53:00,
2013-01-21 13:58:00,37.4,17.4,28.86,NE,45,8.1,8.1,44,0.00,CLR,,0.00,WeatherDisplay:10.37,2013-01-21 19:58:00,
2013-01-21 14:03:00,38.1,18.1,28.86,NNE,22,6.9,6.9,44,0.00,CLR,,0.00,WeatherDisplay:10.37,2013-01-21 20:03:00,
2013-01-21 14:08:00,37.9,17.4,28.86,NNW,338,6.9,6.9,43,0.00,CLR,,0.00,WeatherDisplay:10.37,2013-01-21 20:08:00,
2013-01-21 14:13:00,38.5,17.9,28.86,North,360,4.6,4.6,43,0.00,CLR,,0.00,WeatherDisplay:10.37,2013-01-21 20:13:00,
2013-01-21 14:18:00,37.6,17.6,28.86,NNE,22,7.3,7.3,44,0.00,CLR,,0.00,WeatherDisplay:10.37,2013-01-21 20:18:00,
2013-01-21 14:23:00,38.1,17.5,28.86,NNW,338,6.3,6.3,43,0.00,CLR,,0.00,WeatherDisplay:10.37,2013-01-21 20:23:00,
2013-01-21 14:28:00,38.1,17.5,28.86,NNE,22,7.3,7.3,43,0.00,CLR,,0.00,WeatherDisplay:10.37,2013-01-21 20:28:00,
2013-01-21 14:33:00,36.9,17.0,28.86,NNE,22,5.8,5.8,44,0.00,CLR,,0.00,WeatherDisplay:10.37,2013-01-21 20:33:00,
2013-01-21 14:38:00,38.8,18.2,28.86,NNW,338,5.3,5.3,43,0.00,CLR,,0.00,WeatherDisplay:10.37,2013-01-21 20:38:00,
2013-01-21 14:43:00,37.8,18.3,28.86,NE,45,5.8,5.8,45,0.00,CLR,,0.00,WeatherDisplay:10.37,2013-01-21 20:43:00,
2013-01-21 14:48:00,37.8,18.3,28.86,North,360,5.8,5.8,45,0.00,CLR,,0.00,WeatherDisplay:10.37,2013-01-21 20:48:00,
2013-01-21 14:53:00,37.6,17.6,28.86,NNE,22,6.9,6.9,44,0.00,CLR,,0.00,WeatherDisplay:10.37,2013-01-21 20:53:00,
2013-01-21 14:58:00,37.6,18.2,28.86,NNE,22,5.8,5.8,45,0.00,CLR,,0.00,WeatherDisplay:10.37,2013-01-21 20:58:00,
2013-01-21 15:03:00,37.8,18.3,28.86,NNE,22,6.3,6.3,45,0.00,CLR,,0.00,WeatherDisplay:10.37,2013-01-21 21:03:00,
2013-01-21 15:08:00,37.6,17.6,28.86,North,360,5.8,5.8,44,0.00,CLR,,0.00,WeatherDisplay:10.37,2013-01-21 21:08:00,
2013-01-21 15:13:00,37.0,17.6,28.86,NNE,22,6.9,6.9,45,0.00,CLR,,0.00,WeatherDisplay:10.37,2013-01-21 21:13:00,
2013-01-21 15:18:00,37.2,17.8,28.86,NNW,338,5.8,5.8,45,0.00,CLR,,0.00,WeatherDisplay:10.37,2013-01-21 21:18:00,
2013-01-21 15:23:00,36.9,17.5,28.86,NNE,22,6.9,6.9,45,0.00,CLR,,0.00,WeatherDisplay:10.37,2013-01-21 21:23:00,
2013-01-21 15:28:00,37.0,18.1,28.86,NW,315,5.8,5.8,46,0.00,CLR,,0.00,WeatherDisplay:10.37,2013-01-21 21:28:00,
2013-01-21 15:33:00,36.7,17.8,28.86,NNE,22,6.9,6.9,46,0.00,CLR,,0.00,WeatherDisplay:10.37,2013-01-21 21:33:00,
2013-01-21 15:38:00,36.0,17.7,28.86,NNE,22,8.1,8.1,47,0.00,CLR,,0.00,WeatherDisplay:10.37,2013-01-21 21:38:00,
2013-01-21 15:43:00,36.1,17.8,28.86,NNE,22,8.1,8.1,47,0.00,CLR,,0.00,WeatherDisplay:10.37,2013-01-21 21:43:00,
2013-01-21 15:48:00,36.1,18.3,28.86,NW,315,5.3,5.3,48,0.00,CLR,,0.00,WeatherDisplay:10.37,2013-01-21 21:48:00,
2013-01-21 15:53:00,35.6,17.8,28.86,NNE,22,5.8,5.9,48,0.00,CLR,,0.00,WeatherDisplay:10.37,2013-01-21 21:53:00,
2013-01-21 15:58:00,35.1,17.8,28.86,North,360,6.9,6.9,49,0.00,CLR,,0.00,WeatherDisplay:10.37,2013-01-21 21:58:00,
2013-01-21 16:03:00,35.2,17.9,28.86,NNE,22,5.8,5.8,49,0.00,CLR,,0.00,WeatherDisplay:10.37,2013-01-21 22:03:00,
2013-01-21 16:08:00,35.1,17.8,28.86,North,360,5.3,5.3,49,0.00,CLR,,0.00,WeatherDisplay:10.37,2013-01-21 22:08:00,
2013-01-21 16:13:00,34.7,18.4,28.86,North,360,8.1,8.1,51,0.00,CLR,,0.00,WeatherDisplay:10.37,2013-01-21 22:13:00,
2013-01-21 16:18:00,34.5,18.2,28.86,NNE,22,6.9,6.9,51,0.00,CLR,,0.00,WeatherDisplay:10.37,2013-01-21 22:18:00,
2013-01-21 16:23:00,34.3,17.6,28.86,NNE,22,6.8,6.8,50,0.00,CLR,,0.00,WeatherDisplay:10.37,2013-01-21 22:23:00,
2013-01-21 16:28:00,34.0,17.7,28.86,NNE,22,5.8,5.9,51,0.00,CLR,,0.00,WeatherDisplay:10.37,2013-01-21 22:28:00,
2013-01-21 16:33:00,33.8,17.6,28.86,NNW,338,6.9,6.9,51,0.00,CLR,,0.00,WeatherDisplay:10.37,2013-01-21 22:33:00,
2013-01-21 16:38:00,33.3,17.5,28.86,NNE,22,8.1,8.1,52,0.00,CLR,,0.00,WeatherDisplay:10.37,2013-01-21 22:38:00,
2013-01-21 16:43:00,33.3,18.0,28.86,NNE,22,6.3,6.3,53,0.00,CLR,,0.00,WeatherDisplay:10.37,2013-01-21 22:43:00,
2013-01-21 16:48:00,33.1,17.8,28.86,North,360,8.1,8.1,53,0.00,CLR,,0.00,WeatherDisplay:10.37,2013-01-21 22:48:00,
2013-01-21 16:53:00,32.9,17.6,28.85,ENE,68,6.9,6.9,53,0.00,CLR,,0.00,WeatherDisplay:10.37,2013-01-21 22:53:00,
2013-01-21 16:58:00,32.7,17.9,28.85,NNW,338,5.8,5.8,54,0.00,CLR,,0.00,WeatherDisplay:10.37,2013-01-21 22:58:00,
2013-01-21 17:03:00,32.5,17.2,28.85,NNE,22,5.8,5.9,53,0.00,CLR,,0.00,WeatherDisplay:10.37,2013-01-21 23:03:00,
2013-01-21 17:08:00,32.4,17.6,28.85,North,360,4.6,4.6,54,0.00,CLR,,0.00,WeatherDisplay:10.37,2013-01-21 23:08:00,
2013-01-21 17:13:00,32.0,17.6,28.85,North,360,6.3,6.3,55,0.00,CLR,,0.00,WeatherDisplay:10.37,2013-01-21 23:13:00,
2013-01-21 17:18:00,31.8,17.5,28.84,NNE,22,4.6,4.6,55,0.00,CLR,,0.00,WeatherDisplay:10.37,2013-01-21 23:18:00,
2013-01-21 17:23:00,31.5,17.2,28.84,North,360,4.6,4.6,55,0.00,CLR,,0.00,WeatherDisplay:10.37,2013-01-21 23:23:00,
2013-01-21 17:28:00,31.5,17.2,28.84,NNE,22,3.7,3.7,55,0.00,CLR,,0.00,WeatherDisplay:10.37,2013-01-21 23:28:00,
2013-01-21 17:33:00,31.1,17.2,28.84,NW,315,4.6,4.6,56,0.00,CLR,,0.00,WeatherDisplay:10.37,2013-01-21 23:33:00,
2013-01-21 17:38:00,30.9,17.0,28.84,NNE,22,4.6,4.6,56,0.00,CLR,,0.00,WeatherDisplay:10.37,2013-01-21 23:38:00,
2013-01-21 17:43:00,30.6,17.2,28.84,North,360,4.6,4.6,57,0.00,CLR,,0.00,WeatherDisplay:10.37,2013-01-21 23:43:00,
2013-01-21 17:48:00,30.4,17.0,28.84,NNW,338,3.7,3.7,57,0.00,CLR,,0.00,WeatherDisplay:10.37,2013-01-21 23:48:00,
2013-01-21 17:53:00,30.2,17.2,28.84,North,360,3.2,3.2,58,0.00,CLR,,0.00,WeatherDisplay:10.37,2013-01-21 23:53:00,
2013-01-21 17:58:00,29.8,17.2,28.84,NNE,22,3.5,3.5,59,0.00,CLR,,0.00,WeatherDisplay:10.37,2013-01-21 23:58:00,
2013-01-21 18:03:00,29.7,17.1,28.84,North,360,4.2,4.2,59,0.00,CLR,,0.00,WeatherDisplay:10.37,2013-01-22 00:03:00,
2013-01-21 18:08:00,29.5,17.3,28.84,NNW,338,2.7,2.7,60,0.00,CLR,,0.00,WeatherDisplay:10.37,2013-01-22 00:08:00,
2013-01-21 18:13:00,29.5,17.3,28.84,NNE,22,3.5,3.5,60,0.00,CLR,,0.00,WeatherDisplay:10.37,2013-01-22 00:13:00,
2013-01-21 18:18:00,29.3,17.1,28.84,North,360,3.5,3.5,60,0.00,CLR,,0.00,WeatherDisplay:10.37,2013-01-22 00:18:00,
2013-01-21 18:23:00,29.3,17.1,28.84,NNE,22,2.7,2.7,60,0.00,CLR,,0.00,WeatherDisplay:10.37,2013-01-22 00:23:00,
2013-01-21 18:28:00,29.1,16.9,28.84,North,360,3.5,3.5,60,0.00,CLR,,0.00,WeatherDisplay:10.37,2013-01-22 00:28:00,
2013-01-21 18:33:00,28.8,17.0,28.84,NNE,22,2.7,2.7,61,0.00,CLR,,0.00,WeatherDisplay:10.37,2013-01-22 00:33:00,
2013-01-21 18:38:00,28.6,16.8,28.84,NNW,338,1.7,1.7,61,0.00,CLR,,0.00,WeatherDisplay:10.37,2013-01-22 00:38:00,
2013-01-21 18:43:00,28.4,17.0,28.83,NNW,338,2.3,2.3,62,0.00,CLR,,0.00,WeatherDisplay:10.37,2013-01-22 00:43:00,
2013-01-21 18:48:00,28.2,16.8,28.83,NNE,22,2.3,2.3,62,0.00,CLR,,0.00,WeatherDisplay:10.37,2013-01-22 00:48:00,
2013-01-21 18:53:00,28.0,17.0,28.83,North,360,1.1,0.0,63,0.00,CLR,,0.00,WeatherDisplay:10.37,2013-01-22 00:53:00,
2013-01-21 18:58:00,27.7,16.7,28.83,North,360,1.1,0.0,63,0.00,CLR,,0.00,WeatherDisplay:10.37,2013-01-22 00:58:00,
2013-01-21 19:03:00,27.5,16.9,28.83,NNE,22,2.3,2.3,64,0.00,CLR,,0.00,WeatherDisplay:10.37,2013-01-22 01:03:00,
2013-01-21 19:08:00,27.5,16.9,28.84,NNE,22,2.3,2.3,64,0.00,CLR,,0.00,WeatherDisplay:10.37,2013-01-22 01:08:00,
2013-01-21 19:13:00,27.5,16.9,28.84,NNE,22,3.5,3.5,64,0.00,CLR,,0.00,WeatherDisplay:10.37,2013-01-22 01:13:00,
2013-01-21 19:18:00,27.5,16.9,28.84,NNE,22,3.5,3.5,64,0.00,CLR,,0.00,WeatherDisplay:10.37,2013-01-22 01:18:00,
2013-01-21 19:23:00,27.5,16.9,28.84,North,360,2.7,2.7,64,0.00,CLR,,0.00,WeatherDisplay:10.37,2013-01-22 01:23:00,
2013-01-21 19:28:00,27.5,16.9,28.84,NNW,338,4.6,4.6,64,0.00,CLR,,0.00,WeatherDisplay:10.37,2013-01-22 01:28:00,
2013-01-21 19:33:00,27.5,16.9,28.84,North,360,3.7,3.9,64,0.00,CLR,,0.00,WeatherDisplay:10.37,2013-01-22 01:33:00,
2013-01-21 19:38:00,27.5,16.9,28.84,NNE,22,4.6,4.6,64,0.00,CLR,,0.00,WeatherDisplay:10.37,2013-01-22 01:38:00,
2013-01-21 19:43:00,27.5,16.9,28.84,NNE,22,4.6,4.6,64,0.00,CLR,,0.00,WeatherDisplay:10.37,2013-01-22 01:43:00,
2013-01-21 19:48:00,27.3,16.7,28.84,North,360,4.2,4.2,64,0.00,CLR,,0.00,WeatherDisplay:10.37,2013-01-22 01:48:00,
2013-01-21 19:53:00,27.1,16.9,28.84,NNW,338,2.3,2.3,65,0.00,CLR,,0.00,WeatherDisplay:10.37,2013-01-22 01:53:00,
2013-01-21 19:58:00,27.0,16.8,28.84,WNW,292,2.7,2.7,65,0.00,CLR,,0.00,WeatherDisplay:10.37,2013-01-22 01:58:00,
2013-01-21 20:03:00,26.6,16.8,28.84,North,360,3.5,3.5,66,0.00,CLR,,0.00,WeatherDisplay:10.37,2013-01-22 02:03:00,
2013-01-21 20:08:00,26.6,16.8,28.84,NW,315,1.7,1.8,66,0.00,CLR,,0.00,WeatherDisplay:10.37,2013-01-22 02:08:00,
2013-01-21 20:13:00,26.4,16.6,28.84,NNW,338,2.3,2.3,66,0.00,CLR,,0.00,WeatherDisplay:10.37,2013-01-22 02:13:00,
2013-01-21 20:18:00,26.2,16.7,28.84,North,360,2.7,2.7,67,0.00,CLR,,0.00,WeatherDisplay:10.37,2013-01-22 02:18:00,
2013-01-21 20:23:00,26.1,16.6,28.84,North,360,2.3,2.3,67,0.00,CLR,,0.00,WeatherDisplay:10.37,2013-01-22 02:23:00,
2013-01-21 20:28:00,26.1,16.6,28.85,NNE,22,3.2,3.2,67,0.00,CLR,,0.00,WeatherDisplay:10.37,2013-01-22 02:28:00,
2013-01-21 20:33:00,26.2,17.1,28.85,North,360,3.5,3.5,68,0.00,CLR,,0.00,WeatherDisplay:10.37,2013-01-22 02:33:00,
2013-01-21 20:38:00,26.2,17.1,28.85,NNE,22,4.6,4.6,68,0.00,CLR,,0.00,WeatherDisplay:10.37,2013-01-22 02:38:00,
2013-01-21 20:43:00,26.2,17.1,28.86,NNW,338,4.6,4.6,68,0.00,CLR,,0.00,WeatherDisplay:10.37,2013-01-22 02:43:00,
2013-01-21 20:48:00,26.2,17.1,28.86,NNE,22,3.5,3.5,68,0.00,CLR,,0.00,WeatherDisplay:10.37,2013-01-22 02:48:00,
2013-01-21 20:53:00,26.1,17.0,28.86,North,360,5.8,5.8,68,0.00,CLR,,0.00,WeatherDisplay:10.37,2013-01-22 02:53:00,
2013-01-21 20:58:00,25.9,16.8,28.86,NW,315,4.6,4.6,68,0.00,CLR,,0.00,WeatherDisplay:10.37,2013-01-22 02:58:00,
2013-01-21 21:03:00,25.9,17.1,28.86,North,360,4.2,4.2,69,0.00,CLR,,0.00,WeatherDisplay:10.37,2013-01-22 03:03:00,
2013-01-21 21:08:00,26.1,17.3,28.86,North,360,6.9,6.9,69,0.00,CLR,,0.00,WeatherDisplay:10.37,2013-01-22 03:08:00,
2013-01-21 21:13:00,26.1,17.0,28.86,NNE,22,5.8,5.8,68,0.00,CLR,,0.00,WeatherDisplay:10.37,2013-01-22 03:13:00,
2013-01-21 21:18:00,25.9,17.1,28.86,North,360,5.8,5.8,69,0.00,CLR,,0.00,WeatherDisplay:10.37,2013-01-22 03:18:00,
2013-01-21 21:23:00,25.5,16.7,28.86,NNW,338,5.8,5.8,69,0.00,CLR,,0.00,WeatherDisplay:10.37,2013-01-22 03:23:00,
2013-01-21 21:28:00,25.5,17.1,28.87,North,360,6.9,6.9,70,0.00,CLR,,0.00,WeatherDisplay:10.37,2013-01-22 03:28:00,
2013-01-21 21:33:00,25.5,17.1,28.87,NNE,22,6.3,6.3,70,0.00,CLR,,0.00,WeatherDisplay:10.37,2013-01-22 03:33:00,
2013-01-21 21:38:00,25.3,16.9,28.87,NNE,22,5.8,5.8,70,0.00,CLR,,0.00,WeatherDisplay:10.37,2013-01-22 03:38:00,
2013-01-21 21:43:00,25.2,16.8,28.87,North,360,5.8,5.8,70,0.00,CLR,,0.00,WeatherDisplay:10.37,2013-01-22 03:43:00,
2013-01-21 21:48:00,25.0,16.6,28.87,NNW,338,3.5,3.5,70,0.00,CLR,,0.00,WeatherDisplay:10.37,2013-01-22 03:48:00,
2013-01-21 21:53:00,24.8,16.7,28.87,West,270,2.3,2.3,71,0.00,CLR,,0.00,WeatherDisplay:10.37,2013-01-22 03:53:00,
2013-01-21 21:58:00,24.6,16.5,28.87,NNE,22,0.0,0.0,71,0.00,CLR,,0.00,WeatherDisplay:10.37,2013-01-22 03:58:00,
2013-01-21 22:03:00,24.4,16.3,28.85,NNE,22,0.0,0.3,71,0.00,CLR,,0.00,WeatherDisplay:10.37,2013-01-22 04:03:00,
2013-01-21 22:08:00,24.1,16.4,28.85,NNE,22,1.7,1.7,72,0.00,CLR,,0.00,WeatherDisplay:10.37,2013-01-22 04:08:00,
2013-01-21 22:13:00,23.7,16.3,28.85,NW,315,2.3,2.3,73,0.00,CLR,,0.00,WeatherDisplay:10.37,2013-01-22 04:13:00,
2013-01-21 22:18:00,23.7,16.3,28.86,NNE,22,0.0,0.0,73,0.00,CLR,,0.00,WeatherDisplay:10.37,2013-01-22 04:18:00,
2013-01-21 22:23:00,23.5,16.1,28.86,NNW,338,1.1,1.1,73,0.00,CLR,,0.00,WeatherDisplay:10.37,2013-01-22 04:23:00,
2013-01-21 22:28:00,23.2,16.1,28.86,WNW,292,1.1,1.4,74,0.00,CLR,,0.00,WeatherDisplay:10.37,2013-01-22 04:28:00,
2013-01-21 22:33:00,23.2,16.1,28.86,NNE,22,1.7,1.7,74,0.00,CLR,,0.00,WeatherDisplay:10.37,2013-01-22 04:33:00,
2013-01-21 22:38:00,23.0,16.3,28.86,North,360,2.3,2.3,75,0.00,CLR,,0.00,WeatherDisplay:10.37,2013-01-22 04:38:00,
2013-01-21 22:43:00,23.2,16.1,28.86,NNE,22,2.3,2.3,74,0.00,CLR,,0.00,WeatherDisplay:10.37,2013-01-22 04:43:00,
2013-01-21 22:48:00,23.0,15.9,28.86,NNW,338,1.1,1.1,74,0.00,CLR,,0.00,WeatherDisplay:10.37,2013-01-22 04:48:00,
2013-01-21 22:53:00,22.8,16.1,28.86,North,360,0.0,0.0,75,0.00,CLR,,0.00,WeatherDisplay:10.37,2013-01-22 04:53:00,
2013-01-21 22:58:00,22.6,15.9,28.86,North,360,1.1,1.1,75,0.00,CLR,,0.00,WeatherDisplay:10.37,2013-01-22 04:58:00,
2013-01-21 23:00:00,22.6,15.9,28.86,North,360,1.7,1.7,75,0.00,CLR,,0.00,WeatherDisplay:10.37,2013-01-22 05:00:00,
2013-01-21 23:01:00,22.6,15.9,28.86,North,360,2.3,2.3,75,0.00,CLR,,0.00,WeatherDisplay:10.37,2013-01-22 05:01:00,
2013-01-21 23:03:00,22.6,15.9,28.86,NNW,338,1.1,1.1,75,0.00,CLR,,0.00,WeatherDisplay:10.37,2013-01-22 05:03:00,
2013-01-21 23:05:00,22.6,15.9,28.86,NNW,343,1.0,2.0,75,0.00,CLR,,0.00,WeatherDisplay:10.37,2013-01-22 05:05:00,
2013-01-21 23:10:00,22.5,16.1,28.86,NW,315,1.1,0.0,76,0.00,CLR,,0.00,WeatherDisplay:10.37,2013-01-22 05:10:00,
2013-01-21 23:15:00,22.5,16.1,28.86,NW,305,0.0,2.0,76,0.00,CLR,,0.00,WeatherDisplay:10.37,2013-01-22 05:15:00,
2013-01-21 23:20:00,22.3,15.9,28.85,North,360,0.0,0.0,76,0.00,CLR,,0.00,WeatherDisplay:10.37,2013-01-22 05:20:00,
2013-01-21 23:25:00,22.1,15.7,28.85,South,180,1.1,1.1,76,0.00,CLR,,0.00,WeatherDisplay:10.37,2013-01-22 05:25:00,
2013-01-21 23:30:00,22.1,15.7,28.86,East,90,0.0,0.0,76,0.00,CLR,,0.00,WeatherDisplay:10.37,2013-01-22 05:30:00,
2013-01-21 23:35:00,22.1,15.7,28.86,WSW,248,0.0,0.0,76,0.00,CLR,,0.00,WeatherDisplay:10.37,2013-01-22 05:35:00,
2013-01-21 23:40:00,21.7,15.6,28.85,NNE,22,1.1,1.1,77,0.00,CLR,,0.00,WeatherDisplay:10.37,2013-01-22 05:40:00,
2013-01-21 23:45:00,21.7,15.6,28.85,NNW,338,1.1,1.1,77,0.00,CLR,,0.00,WeatherDisplay:10.37,2013-01-22 05:45:00,
2013-01-21 23:50:00,22.1,16.0,28.85,NNW,338,2.3,2.3,77,0.00,CLR,,0.00,WeatherDisplay:10.37,2013-01-22 05:50:00,
2013-01-21 23:55:00,22.1,16.0,28.86,NNW,338,1.1,1.5,77,0.00,CLR,,0.00,WeatherDisplay:10.37,2013-01-22 05:55:00,